This is the latest recevied weather packets stored in our database for station/object SP6RGZ-1. If no packets are shown the sender has not sent any weather packets the latest 10 day(s).
| Time | Temp. | Humidity | Pressure | Rain* | Wind** | Luminosity | Snow |
|---|---|---|---|---|---|---|---|
| 1787899502 | 21.11° C | 60% | 997.1 hPa | - | - | - | - |
| 1787898602 | 20.56° C | 60% | 997.2 hPa | - | - | - | - |
| 1787897702 | 20° C | 63% | 997.2 hPa | - | - | - | - |
| 1787896801 | 18.89° C | 65% | 997.5 hPa | - | - | - | - |
| 1787895902 | 18.89° C | 65% | 997.6 hPa | - | - | - | - |
| 1787895002 | 18.89° C | 65% | 997.6 hPa | - | - | - | - |
| 1787894102 | 18.33° C | 67% | 997.7 hPa | - | - | - | - |
| 1787893202 | 17.78° C | 69% | 997.8 hPa | - | - | - | - |
| 1787892302 | 17.22° C | 72% | 998 hPa | - | - | - | - |
| 1787891402 | 16.11° C | 75% | 998.1 hPa | - | - | - | - |
| 1787890502 | 15.56° C | 76% | 998.1 hPa | - | - | - | - |
| 1787889602 | 15.56° C | 77% | 998.4 hPa | - | - | - | - |
| 1787888702 | 16.11° C | 76% | 998.4 hPa | - | - | - | - |
| 1787887802 | 16.11° C | 75% | 998.4 hPa | - | - | - | - |
| 1787886902 | 16.11° C | 75% | 998.4 hPa | - | - | - | - |
| 1787886002 | 16.11° C | 75% | 998.3 hPa | - | - | - | - |
| 1787885102 | 16.11° C | 75% | 998.3 hPa | - | - | - | - |
| 1787884201 | 16.11° C | 74% | 998.3 hPa | - | - | - | - |
| 1787883301 | 16.11° C | 74% | 998.5 hPa | - | - | - | - |
| 1787882402 | 16.11° C | 73% | 998.7 hPa | - | - | - | - |
| 1787881502 | 16.11° C | 72% | 998.7 hPa | - | - | - | - |
| 1787880602 | 16.67° C | 71% | 998.7 hPa | - | - | - | - |
| 1787879702 | 16.67° C | 71% | 998.7 hPa | - | - | - | - |
| 1787878802 | 16.67° C | 70% | 999 hPa | - | - | - | - |
| 1787877902 | 16.67° C | 70% | 998.9 hPa | - | - | - | - |
* Rain since midnight (hover to see other rain measurements)
** Current wind speed in m/s (hover to see current wind gust speed)